ARIANE 5 DEB, 48422

Orbit data source: Space-Track

ARIANE 5 DEB, 48422 is space debris in HEO originally from a launch on Fri, 05 Oct 2007 UTC launched from the French Guiana (FRGUI). Debris objects in space refer to the collection of defunct objects orbiting the Earth. Examples of debris include non-operational satellites, rocket bodies, and fragments generated from explosions, collisions, or faulty payload assembly.

Loading next visibility...
Identifier
48422, 2007-044E
Orbit
HEO
Country
Flag of FRFR
Related business
Manufacturer
Unknown
Mission
Spacecraft
Bus & Motor
Unknown
Mass
Unknown
Launch date (UTC)
2007-10-05 (19 years ago)
Launch vehicle
Unknown
Launch site
French Guiana (FRGUI)
Object type
Payload
Rocket body
Debris
Shape & HBR
Unknown shape, 1.1 m
Radar Cross Section
Medium (>0.1 m² and <1 m²)

Expand to show TLE details & history
Last TLE update: 3 days ago

TLE from 3 days ago
0 ARIANE 5 DEB
1 48422U 07044E   26170.88502647 -.00000066  00000-0  17645-3 0  9990
2 48422   4.3998  30.1097 7183344 349.0568   1.3303  2.29225865104994
Epoch: 2026-06-19T21:14Z
TLE epoch observation values (Epoch: 2026-06-19T21:14:26.287Z)
Latitude
0.0005°
Longitude
163.30711°
Altitude
534.892 km
Speed
9.945 km/s
True Right ascension
02h 00m 05s
True Declination
0° 00' 02"
Sunlit
Object was in daylight at epoch
Visualization orbit readout
Latitude
Unknown
Longitude
Unknown
Altitude
Unknown
Speed
Unknown
Apparent Right ascension
Unknown
Apparent Declination
Unknown
Sunlit
N/A
Visualization observer readout
Local Sidereal Time
21:35:07
Azimuth
Unknown
Elevation
Unknown
Doppler factor
Unknown
Orbital elements
Apogee altitude
35,382.081 km
Perigee altitude
467.106 km
Semi-major axis
24,302.73 km
Eccentricity
0.71833
Inclination
4.3998°
RAAN
30.1097°
Arg. of periapsis
349.0568°
True anomaly
11.59887°
Mean anomaly
1.3303°
Eccentric anomaly
4.70946°
Mean motion
0.57288 °/min
Orbital period
628.41 mins
BSTAR
0.00017645
Loading maneuver chart data...
Computing Atmospheric mass density...
Loading historical data...
Loading historical data...
Loading historical data...
Loading historical data...
Loading historical data...
Loading historical data...
Loading historical data...
Other satellites on launch #44 in the year 2007 (2007-10-05 UTC)

Documentation

Showing up to 5 results
|